Temp
77 80 83 85 78 77 72 74 78 79 81 87 87 84 83 83 80 78 89 91 92 88 87 84 80 80 80 80 80 79 79 79 79 79 79 79 79 79 79 79 79 80 81 81 81 81 80 80 80
79 80 85 81 74 69 74 77 75 79 84 87 88 87 85 83 89 91 88 89 90 88 86 87 79 80 80 80 79 79 79 79 79 79 79 79 79 79 79 79 79 80 81 81 81 81 80 80 80
78 79 82 79 71 70 72 75 76 81 84 85 85 88 88 80 88 88 90 88 90 87 86 86 79 80 80 79 79 79 79 79 79 79 79 79 79 79 79 79 79 80 81 81 81 80 80 79 79
81 83 77 72 70 71 73 74 77 80 84 85 83 81 87 90 87 87 88 88 87 87 88 82 79 79 79 79 79 78 78 79 79 79 79 79 79 78 78 79 79 80 81 81 80 80 79 79 79
79 78 70 67 66 67 73 75 77 78 79 81 82 79 82 88 90 87 86 88 87 87 87 86 79 79 79 79 79 78 78 78 78 79 79 79 78 78 78 79 79 80 80 80 79 79 78 78 78
75 73 66 65 63 67 72 75 77 77 79 81 81 79 81 88 86 86 87 87 89 87 87 86 80 79 79 79 78 78 78 78 78 78 78 78 78 78 78 78 79 79 79 79 79 78 78 77 78
71 70 64 61 62 66 70 76 74 74 76 78 83 77 84 88 85 86 85 87 87 88 85 86 87 82 79 78 78 78 78 78 78 78 78 78 78 78 78 78 78 79 78 78 78 78 77 77 77
72 71 59 61 63 65 69 73 74 75 74 83 84 77 78 85 85 86 86 86 87 87 88 88 83 88 86 84 78 78 78 77 77 77 77 77 78 78 78 76 77 78 78 78 77 77 77 77 77
70 66 60 61 61 65 70 68 74 79 76 78 82 83 87 89 87 85 85 83 85 85 86 88 85 83 86 87 83 78 78 78 77 78 77 77 86 84 82 81 77 77 77 77 77 77 77 77 77
69 63 60 64 66 65 69 68 71 72 73 75 79 85 87 88 88 84 83 81 82 82 83 88 84 84 85 86 85 84 84 84 83 84 82 85 85 85 85 81 77 77 77 77 77 77 77 78 88
63 62 63 65 67 67 67 69 71 70 69 74 75 79 83 84 85 85 85 84 84 85 84 85 83 83 84 86 85 84 85 85 84 83 83 83 83 83 84 85 84 84 79 85 83 83 86 85 87
62 64 65 66 68 66 67 70 68 71 72 79 80 79 80 81 83 84 86 87 85 83 83 84 83 80 80 86 84 83 84 83 83 82 82 82 83 79 82 84 85 83 85 84 83 86 83 83 85
62 63 65 68 68 67 68 66 68 69 76 79 78 78 78 80 81 83 84 85 85 84 83 83 83 81 79 81 83 82 81 82 83 83 83 84 83 79 78 82 84 84 85 84 83 83 83 83 84
64 64 65 66 66 65 63 66 65 71 75 74 74 76 78 78 81 81 83 84 83 84 84 85 82 81 82 81 81 81 81 81 82 83 83 83 83 79 76 81 82 83 83 84 83 83 83 84 85
64 58 62 62 65 64 65 62 62 73 74 71 73 76 77 78 80 80 81 80 81 82 83 83 82 82 80 80 81 81 81 82 81 82 81 81 80 78 79 81 82 83 82 80 80 80 81 83 85
59 57 53 63 63 66 63 55 65 72 71 70 72 74 75 77 79 81 81 80 80 79 78 82 86 83 80 80 81 81 81 80 80 81 82 80 78 77 78 81 81 83 81 82 81 81 81 82 83
55 50 52 55 64 61 62 56 65 70 69 68 70 72 74 75 78 78 80 81 80 79 77 76 81 82 79 80 81 80 79 79 81 81 80 78 76 76 77 78 79 79 81 81 81 80 80 80 81
49 50 53 52 60 61 59 58 65 68 67 67 69 71 72 74 75 78 79 80 79 78 76 74 79 80 80 80 77 78 77 79 78 81 79 78 78 77 76 78 78 78 79 80 80 78 80 81 81
54 52 51 56 61 57 56 56 61 66 66 65 67 69 70 72 77 78 77 78 78 76 76 75 74 77 78 75 74 73 72 74 73 74 78 78 78 77 76 78 78 77 77 78 78 79 77 77 78
54 51 51 57 60 56 56 55 61 64 65 67 67 68 69 72 74 75 76 74 75 74 74 75 75 76 78 79 76 75 75 75 74 73 76 77 77 78 77 77 77 77 77 76 77 77 78 79 78
54 51 51 50 54 58 54 53 60 65 67 68 68 69 71 70 70 72 73 72 74 74 73 76 76 77 76 79 78 73 72 71 69 71 74 76 77 78 78 77 77 75 77 77 78 78 77 78 77
48 58 52 50 48 43 53 40 54 60 61 63 66 68 70 71 72 72 70 70 72 73 74 73 74 76 76 77 74 72 71 69 71 74 75 74 76 77 78 77 77 75 75 76 78 79 79 79 76
51 54 51 50 47 46 47 43 52 59 57 62 66 68 69 71 70 70 69 70 73 74 73 72 71 74 77 76 76 74 73 75 77 75 74 74 74 76 77 76 77 77 76 75 78 77 76 76 72
55 51 52 51 47 38 46 45 49 54 57 61 67 68 69 70 71 69 69 70 71 73 74 73 70 73 75 75 75 74 74 75 75 74 74 74 74 76 76 77 77 78 77 76 76 76 75 71 69
53 47 38 38 38 39 47 43 49 57 62 63 63 65 68 67 67 67 67 68 69 70 71 71 71 70 74 72 73 74 74 74 74 75 74 74 75 76 76 76 76 78 76 75 74 74 74 69 69
47 44 36 27 34 40 48 39 51 60 63 64 63 63 62 63 65 65 66 66 68 68 69 69 69 69 70 74 70 73 76 76 77 77 77 78 79 78 77 76 77 76 75 76 71 72 69 66 63
46 41 48 39 42 33 42 47 54 59 60 59 58 59 60 61 63 64 66 67 67 67 67 68 67 68 69 70 73 70 71 74 76 76 76 77 77 78 73 77 76 75 75 71 66 64 64 66 63
49 52 38 41 27 30 42 44 47 53 55 56 57 58 60 61 63 63 64 65 66 66 67 67 66 67 69 69 69 74 73 72 76 76 74 76 71 72 72 75 74 73 72 67 63 60 59 60 58
45 43 43 40 38 31 31 42 55 54 56 54 56 58 58 59 60 61 63 64 65 66 67 66 66 66 67 69 69 69 73 74 75 75 76 76 74 70 73 72 72 70 68 65 63 57 56 54 52
50 45 44 32 34 34 33 36 59 56 56 54 54 56 60 60 59 59 61 62 63 64 65 66 65 65 66 67 67 68 70 73 73 73 76 75 72 71 72 69 67 67 63 60 57 54 53 52 51
MSLP
1010.45 1010.16 1009.94 1009.32 1008.97 1007.66 1006.63 1006.23 1006.32 1005.70 1004.97 1004.86 1004.77 1004.42 1004.19 1004.55 1004.42 1004.37 1004.74 1004.67 1005.19 1006.05 1006.60 1007.33 1007.27 1007.73 1008.22 1008.73 1008.79 1009.20 1009.63 1010.02 1010.34 1010.66 1011.05 1011.47 1011.79 1012.29 1012.72 1013.04 1013.28 1013.48 1013.74 1013.96 1014.14 1014.32 1014.53 1014.75 1014.84
1010.48 1010.05 1009.52 1008.91 1008.09 1007.02 1006.35 1006.31 1006.20 1006.23 1005.81 1005.26 1004.58 1004.39 1004.17 1004.17 1005.03 1004.81 1004.99 1005.60 1005.80 1006.17 1006.68 1007.19 1007.59 1007.86 1008.30 1008.68 1008.90 1009.37 1009.71 1010.26 1010.58 1010.78 1011.09 1011.57 1012.00 1012.38 1012.86 1013.23 1013.48 1013.69 1013.89 1014.06 1014.29 1014.45 1014.62 1014.86 1015.06
1010.51 1010.02 1009.21 1008.55 1007.91 1006.72 1006.40 1006.73 1006.61 1006.47 1006.14 1005.54 1004.80 1004.76 1004.61 1005.73 1005.48 1005.37 1005.56 1005.92 1006.25 1006.80 1006.89 1007.43 1007.85 1008.00 1008.36 1008.60 1009.02 1009.53 1009.91 1010.30 1010.78 1011.11 1011.37 1011.75 1012.21 1012.63 1013.01 1013.34 1013.60 1013.78 1013.95 1014.22 1014.43 1014.56 1014.79 1015.01 1015.25
1010.04 1009.69 1010.12 1009.04 1007.65 1007.63 1007.44 1007.55 1007.21 1006.55 1006.15 1006.14 1005.93 1005.50 1005.86 1006.46 1006.17 1006.13 1005.88 1006.22 1006.53 1007.22 1007.56 1007.93 1008.30 1008.42 1008.69 1008.90 1009.27 1009.60 1009.99 1010.44 1010.88 1011.35 1011.69 1012.02 1012.48 1012.83 1013.14 1013.44 1013.74 1013.89 1014.02 1014.21 1014.51 1014.72 1014.97 1015.21 1015.41
1010.33 1009.91 1009.40 1009.04 1008.47 1008.51 1008.37 1008.27 1007.73 1006.95 1006.64 1006.43 1006.45 1006.24 1006.11 1006.33 1006.47 1006.50 1006.54 1006.58 1006.71 1007.40 1007.80 1008.42 1008.78 1008.78 1009.00 1009.24 1009.52 1009.89 1010.17 1010.52 1010.96 1011.36 1011.84 1012.16 1012.57 1012.95 1013.30 1013.52 1013.80 1014.05 1014.17 1014.40 1014.68 1014.91 1015.15 1015.33 1015.41
1010.22 1010.40 1009.54 1008.94 1009.12 1009.12 1009.02 1008.82 1008.21 1007.73 1007.33 1006.69 1006.50 1006.56 1006.53 1007.09 1006.95 1006.89 1006.92 1006.88 1007.06 1007.43 1007.91 1008.38 1009.08 1009.12 1009.19 1009.53 1009.69 1010.06 1010.36 1010.69 1011.08 1011.39 1011.84 1012.28 1012.69 1013.10 1013.41 1013.66 1013.91 1014.15 1014.36 1014.50 1014.79 1015.03 1015.20 1015.30 1015.39
1010.26 1010.17 1009.83 1009.84 1009.70 1009.47 1009.37 1009.34 1008.91 1008.50 1007.85 1007.20 1007.14 1006.58 1006.46 1006.51 1007.15 1007.16 1007.12 1007.26 1007.36 1007.66 1008.09 1008.28 1008.68 1009.21 1009.52 1009.73 1010.01 1010.42 1010.64 1010.80 1011.03 1011.43 1011.87 1012.28 1012.75 1013.24 1013.53 1013.83 1014.09 1014.34 1014.59 1014.77 1014.93 1015.18 1015.36 1015.40 1015.44
1011.01 1010.82 1010.79 1010.55 1010.05 1009.76 1010.14 1009.87 1009.72 1009.15 1008.33 1007.91 1007.51 1006.66 1006.48 1006.91 1007.23 1007.23 1007.14 1007.22 1007.46 1007.69 1007.93 1008.10 1008.72 1008.89 1009.20 1009.76 1010.21 1010.52 1010.90 1011.09 1011.41 1011.64 1012.03 1012.39 1012.85 1013.35 1013.65 1013.99 1014.21 1014.45 1014.70 1014.84 1015.02 1015.27 1015.41 1015.48 1015.47
1011.67 1011.17 1010.79 1010.68 1010.63 1010.27 1010.70 1010.43 1009.99 1009.61 1008.91 1008.43 1007.70 1007.22 1006.96 1007.07 1007.20 1007.13 1007.08 1007.07 1007.35 1007.66 1007.96 1008.09 1008.61 1008.96 1009.09 1009.47 1010.18 1010.50 1010.89 1011.26 1011.47 1011.77 1012.23 1012.72 1012.83 1013.42 1013.68 1013.80 1014.18 1014.47 1014.68 1014.84 1015.11 1015.34 1015.50 1015.53 1015.52
1011.50 1011.39 1011.31 1011.53 1011.39 1011.15 1010.97 1010.77 1010.24 1009.78 1009.16 1008.41 1007.83 1007.41 1007.21 1007.07 1007.01 1006.91 1006.94 1007.02 1007.05 1007.36 1007.70 1007.94 1008.36 1008.60 1008.90 1009.36 1009.83 1010.35 1010.60 1010.96 1011.42 1011.67 1011.92 1012.09 1012.61 1012.98 1013.22 1013.72 1014.15 1014.40 1014.63 1014.88 1015.09 1015.26 1015.46 1015.51 1014.90
1012.19 1011.68 1012.04 1011.97 1011.89 1011.84 1011.22 1010.68 1010.46 1009.79 1009.01 1008.60 1008.14 1007.50 1007.41 1007.38 1007.05 1006.98 1006.84 1006.88 1006.85 1007.10 1007.28 1007.74 1008.29 1008.44 1008.58 1008.97 1009.58 1010.05 1010.36 1010.63 1011.03 1011.43 1011.66 1011.81 1012.11 1012.62 1012.93 1013.29 1013.61 1013.93 1014.36 1014.23 1014.73 1014.93 1014.88 1014.83 1014.71
1012.10 1012.24 1012.26 1012.14 1012.04 1011.77 1011.01 1010.78 1010.16 1009.72 1009.20 1008.74 1008.36 1008.16 1007.64 1007.29 1007.08 1006.99 1006.81 1006.68 1006.72 1006.86 1006.99 1007.14 1007.69 1008.22 1008.60 1008.59 1009.23 1009.62 1010.05 1010.47 1010.80 1011.15 1011.61 1011.84 1011.98 1012.49 1012.47 1012.72 1013.11 1013.64 1013.77 1013.97 1014.24 1014.36 1014.67 1014.78 1014.65
1012.09 1012.20 1012.15 1011.89 1011.69 1011.40 1011.19 1010.59 1009.88 1009.51 1009.05 1008.69 1008.54 1008.17 1007.76 1007.33 1007.11 1006.97 1006.88 1006.77 1006.83 1006.73 1006.69 1006.94 1007.47 1007.78 1008.03 1008.54 1008.90 1009.27 1009.67 1010.04 1010.39 1010.97 1011.42 1011.47 1011.72 1012.39 1012.85 1012.83 1012.99 1013.24 1013.51 1013.70 1013.97 1014.19 1014.41 1014.47 1014.42
1012.33 1012.24 1011.86 1011.51 1011.39 1011.23 1010.89 1010.30 1010.15 1009.11 1008.86 1008.62 1008.49 1008.06 1007.67 1007.39 1007.03 1006.92 1006.67 1006.46 1006.45 1006.43 1006.33 1006.50 1006.86 1007.18 1007.56 1007.71 1008.13 1008.67 1009.09 1009.62 1010.07 1010.35 1010.77 1011.45 1011.57 1012.20 1012.54 1012.70 1012.93 1013.02 1013.31 1013.45 1013.72 1013.95 1014.17 1014.18 1014.09
1012.21 1012.13 1011.76 1011.46 1011.12 1010.71 1010.60 1009.84 1009.30 1008.83 1008.63 1008.42 1007.97 1007.70 1007.52 1007.14 1007.01 1006.69 1006.58 1006.47 1006.34 1006.10 1006.10 1006.03 1006.18 1006.59 1007.00 1007.24 1007.55 1007.90 1008.32 1008.90 1009.61 1009.84 1010.37 1010.79 1011.46 1012.11 1012.25 1012.25 1012.41 1012.63 1013.05 1013.52 1013.83 1014.00 1014.01 1014.03 1013.96
1012.05 1012.19 1011.59 1011.28 1011.25 1010.69 1010.68 1008.79 1008.92 1008.73 1008.56 1008.08 1007.65 1007.32 1007.01 1006.73 1006.52 1006.35 1006.16 1006.14 1006.02 1005.84 1005.61 1005.56 1005.43 1005.72 1006.23 1006.58 1006.98 1007.43 1007.84 1008.11 1008.90 1009.27 1009.82 1010.29 1010.97 1011.57 1011.98 1012.07 1012.19 1012.33 1012.80 1013.06 1013.43 1013.71 1013.88 1013.84 1013.74
1012.19 1011.60 1011.48 1011.15 1011.12 1010.88 1010.46 1008.60 1008.46 1008.51 1008.07 1007.62 1007.25 1006.80 1006.39 1005.98 1005.65 1005.76 1005.70 1005.38 1005.30 1005.33 1005.17 1005.07 1005.03 1005.07 1005.43 1005.70 1006.08 1006.63 1007.24 1007.62 1008.05 1008.62 1009.01 1009.83 1010.46 1010.93 1011.29 1011.59 1011.84 1012.35 1012.67 1012.93 1013.16 1013.36 1013.74 1013.70 1013.70
1011.79 1011.57 1011.40 1011.10 1010.67 1010.24 1009.41 1007.39 1007.30 1007.66 1007.47 1007.04 1006.67 1006.14 1005.58 1005.04 1004.76 1004.82 1004.90 1004.86 1004.69 1004.56 1004.68 1004.77 1004.69 1004.77 1005.06 1005.46 1005.91 1006.24 1006.75 1007.14 1007.53 1007.94 1008.28 1009.07 1009.65 1010.17 1010.60 1010.90 1011.53 1012.01 1012.43 1012.71 1012.99 1013.09 1013.47 1013.59 1013.66
1012.35 1011.92 1011.30 1011.01 1010.87 1010.31 1009.00 1007.16 1005.72 1006.63 1006.27 1005.88 1005.42 1004.91 1004.65 1004.29 1003.99 1004.14 1004.18 1004.26 1004.14 1003.98 1003.95 1004.11 1004.20 1004.14 1004.57 1004.97 1005.28 1005.63 1005.80 1006.22 1006.75 1007.16 1007.58 1008.03 1008.65 1009.34 1009.98 1010.35 1010.97 1011.62 1011.98 1012.20 1012.69 1012.90 1013.14 1013.59 1013.97
1012.26 1011.85 1011.06 1010.59 1010.52 1010.55 1008.92 1005.72 1005.49 1005.59 1004.70 1004.24 1004.09 1004.08 1003.96 1003.64 1003.55 1003.45 1003.57 1003.71 1003.64 1003.56 1003.36 1003.17 1003.37 1003.48 1003.70 1004.12 1004.43 1004.79 1005.40 1005.75 1006.14 1006.59 1007.16 1007.36 1007.76 1008.51 1009.34 1009.92 1010.43 1010.94 1011.40 1011.97 1012.24 1012.58 1012.67 1013.11 1013.62
1012.01 1011.72 1011.23 1010.99 1010.66 1010.23 1008.99 1005.11 1004.11 1004.29 1003.60 1003.45 1003.47 1003.31 1003.21 1003.13 1003.06 1003.08 1003.11 1003.15 1003.03 1003.03 1002.91 1002.71 1002.49 1002.78 1003.05 1003.22 1003.99 1004.57 1005.30 1005.76 1006.06 1006.17 1006.52 1006.68 1007.18 1007.70 1008.48 1009.22 1009.84 1010.33 1010.81 1011.32 1011.75 1012.10 1012.20 1012.33 1013.16
1011.65 1011.66 1011.79 1011.43 1010.93 1009.79 1010.12 1005.93 1004.67 1003.66 1003.31 1003.14 1002.82 1002.67 1002.62 1002.68 1002.89 1003.02 1003.03 1002.83 1002.62 1002.40 1002.63 1002.33 1002.06 1002.26 1002.42 1002.76 1003.28 1003.82 1004.12 1004.57 1004.85 1005.12 1005.49 1006.07 1006.86 1007.42 1007.88 1008.42 1009.20 1009.89 1010.22 1010.49 1011.04 1011.60 1011.76 1012.03 1012.37
1012.06 1012.34 1012.12 1011.64 1010.93 1010.07 1009.45 1008.28 1004.03 1003.80 1003.15 1002.57 1002.26 1002.35 1002.48 1002.51 1002.80 1002.95 1003.10 1002.98 1002.68 1002.33 1002.13 1001.99 1001.85 1001.86 1002.06 1002.41 1002.52 1003.07 1003.55 1003.77 1004.14 1004.59 1005.14 1005.73 1006.40 1006.79 1007.38 1008.01 1008.50 1009.03 1010.04 1010.03 1010.21 1010.89 1011.41 1011.98 1012.26
1012.93 1012.55 1011.76 1010.85 1010.57 1009.60 1008.16 1007.67 1004.29 1003.59 1003.19 1002.66 1002.29 1002.47 1002.52 1002.58 1002.67 1003.05 1003.33 1003.23 1002.99 1002.56 1002.24 1001.97 1001.90 1001.40 1001.55 1001.99 1002.40 1002.46 1002.60 1002.89 1003.20 1003.83 1004.14 1004.77 1005.58 1006.31 1006.54 1007.06 1007.79 1008.43 1008.93 1009.19 1010.28 1010.10 1010.81 1011.73 1012.36
1013.03 1012.88 1011.54 1010.66 1010.01 1008.58 1008.38 1007.40 1004.58 1003.85 1003.31 1002.99 1002.88 1002.76 1002.80 1003.22 1003.36 1003.61 1003.57 1003.46 1003.33 1002.99 1002.56 1002.30 1001.99 1001.85 1001.63 1001.68 1001.80 1001.97 1002.04 1002.30 1002.43 1002.73 1003.41 1003.94 1004.41 1005.13 1005.55 1006.25 1006.88 1007.59 1008.21 1008.74 1009.37 1010.33 1010.51 1011.32 1012.20
1013.39 1013.84 1013.05 1011.76 1010.20 1008.64 1008.52 1006.09 1004.00 1003.87 1003.63 1003.62 1003.64 1003.64 1003.76 1003.83 1003.95 1003.98 1003.98 1004.04 1003.82 1003.57 1003.07 1002.72 1002.41 1002.10 1001.95 1001.56 1001.51 1001.40 1001.54 1001.77 1001.83 1002.14 1002.39 1002.91 1003.26 1003.92 1005.02 1005.62 1006.22 1006.94 1007.84 1008.22 1008.53 1010.14 1010.57 1011.51 1012.59
1013.61 1013.67 1013.61 1012.81 1011.22 1009.88 1007.45 1005.75 1004.79 1003.72 1003.49 1003.77 1004.01 1004.06 1004.06 1004.17 1004.15 1004.29 1004.09 1004.08 1004.14 1004.04 1003.71 1003.21 1002.72 1002.32 1002.08 1001.93 1001.50 1001.33 1001.28 1001.19 1001.16 1001.43 1002.04 1002.28 1002.75 1003.42 1004.22 1004.94 1005.58 1006.45 1007.61 1008.32 1008.77 1009.36 1011.00 1012.10 1012.98
1013.58 1013.75 1013.71 1013.46 1011.93 1009.18 1006.18 1004.74 1003.07 1003.16 1003.37 1003.83 1004.04 1004.14 1004.17 1004.28 1004.10 1004.12 1004.27 1004.13 1004.10 1004.04 1003.79 1003.47 1002.99 1002.50 1001.96 1001.87 1001.70 1001.14 1000.89 1000.81 1000.61 1001.04 1001.44 1001.90 1002.61 1002.83 1003.63 1004.24 1005.17 1006.37 1007.44 1008.55 1009.06 1010.07 1011.15 1012.22 1013.59
1013.53 1013.67 1013.89 1014.00 1013.09 1010.66 1007.24 1004.10 1003.74 1003.57 1003.72 1004.28 1004.59 1004.69 1004.63 1004.43 1004.16 1004.00 1003.96 1004.00 1003.86 1003.67 1003.39 1003.16 1002.93 1002.39 1001.86 1001.53 1001.33 1000.99 1000.41 1000.25 1000.42 1000.53 1000.60 1001.14 1002.00 1002.24 1002.72 1003.17 1004.80 1006.17 1007.28 1008.51 1010.02 1011.05 1011.74 1012.72 1014.09
1013.05 1013.20 1013.67 1013.73 1012.42 1011.30 1009.09 1003.89 1003.64 1003.85 1004.61 1005.15 1005.26 1005.06 1004.62 1004.37 1004.06 1003.74 1003.62 1003.46 1003.32 1003.03 1002.80 1002.45 1002.42 1002.27 1001.94 1001.29 1001.05 1000.68 1000.16 999.88 1000.04 1000.09 1000.13 1000.45 1001.42 1002.47 1002.82 1004.00 1004.98 1006.43 1007.70 1008.92 1010.46 1011.76 1012.59 1013.31 1014.59
Wind_Speed
7 5 0 2 3 2 1 2 1 2 7 6 9 7 5 3 4 6 7 13 13 20 19 20 21 20 19 19 20 19 19 19 19 20 19 19 19 18 17 15 14 13 13 13 13 12 11 11 11
5 1 1 1 4 5 3 2 3 3 7 12 6 6 5 3 7 7 4 5 14 18 17 18 20 20 19 18 19 18 19 18 18 19 19 18 18 18 16 15 13 12 13 13 12 12 12 12 11
2 2 2 2 3 8 4 3 4 5 3 9 6 4 6 9 15 10 7 9 15 15 16 16 19 20 19 18 18 19 19 19 18 18 18 18 17 17 16 14 13 13 14 13 12 12 11 12 11
1 2 4 4 9 2 3 3 6 6 2 7 8 4 4 11 14 12 4 10 14 13 12 16 16 17 17 18 18 18 19 18 18 17 17 17 16 15 14 14 13 13 14 13 12 11 11 11 10
3 1 3 3 4 2 2 2 3 4 4 6 8 8 6 11 13 9 3 7 13 12 11 14 12 15 16 17 18 18 18 18 18 17 16 16 15 14 14 13 13 12 12 12 11 11 10 10 10
2 1 3 7 3 2 3 4 2 8 7 8 9 13 1 8 12 7 4 6 9 12 11 12 11 12 16 16 17 17 18 18 18 17 16 15 15 14 13 12 11 11 11 11 11 11 10 9 9
1 1 1 1 2 3 3 4 7 7 10 5 12 9 4 14 10 6 6 5 8 11 12 12 12 12 13 14 15 15 17 17 17 16 15 14 14 12 11 10 10 9 9 9 9 9 9 8 8
3 2 5 3 3 2 4 4 3 7 6 12 7 4 7 12 6 4 5 5 7 10 11 13 10 12 12 12 14 15 15 16 15 15 14 14 13 11 10 9 8 9 8 8 8 8 9 8 7
1 2 4 3 3 1 4 8 2 6 7 4 6 9 10 10 5 4 1 6 7 8 10 11 12 10 10 11 12 14 17 15 15 15 14 11 10 11 12 8 9 8 8 8 7 7 7 7 7
1 2 4 1 4 5 9 5 8 5 6 6 9 8 10 12 8 8 6 4 8 12 12 11 12 13 12 9 12 12 12 11 11 12 14 11 11 10 10 8 9 8 8 6 6 7 7 8 6
2 1 3 4 5 5 5 8 3 6 7 8 9 14 13 14 11 9 9 7 8 11 12 13 12 12 13 11 9 7 7 8 9 13 13 11 10 10 8 6 7 7 9 6 7 7 6 6 5
2 2 3 1 7 5 10 9 8 11 11 10 12 12 13 13 10 11 11 10 9 10 14 15 17 13 12 9 10 9 8 9 8 10 13 10 8 9 8 7 8 7 6 6 6 5 4 6 6
2 1 3 7 10 8 9 12 16 13 16 14 11 10 10 10 10 10 9 10 8 11 13 16 16 16 14 14 10 10 10 10 10 10 12 11 10 9 8 7 7 7 6 6 6 5 5 6 6
3 5 9 8 9 5 6 6 3 6 6 9 9 8 11 10 11 10 11 10 11 10 12 12 17 18 17 16 15 12 11 10 10 10 12 13 10 9 9 9 8 8 7 6 5 5 5 5 5
3 6 6 3 4 5 2 11 8 10 13 14 12 13 13 12 11 12 11 11 11 12 11 12 17 18 18 18 16 13 13 12 11 11 13 15 12 10 11 10 9 8 7 7 5 5 5 5 5
4 2 6 4 8 5 4 14 7 8 13 17 17 16 14 15 15 14 13 12 11 11 11 12 12 17 19 17 15 12 13 13 12 11 11 15 14 13 11 9 9 8 7 7 6 5 5 4 4
3 9 14 9 8 7 11 21 14 14 19 16 16 17 17 18 18 13 15 15 14 11 11 10 12 16 19 18 15 15 16 13 13 12 11 15 14 14 11 9 8 9 7 7 6 6 5 4 3
15 15 12 17 12 18 22 29 21 16 16 17 18 19 19 19 20 17 15 15 14 13 9 8 10 14 16 13 11 10 10 12 11 14 13 16 13 15 13 10 9 9 8 7 7 7 6 3 3
10 12 17 17 15 17 20 28 28 18 18 20 20 21 20 20 18 16 14 13 13 13 11 9 9 13 12 10 11 11 12 12 12 11 17 17 15 16 13 10 10 10 9 10 10 8 8 5 6
8 14 18 16 12 14 19 34 25 19 21 22 20 17 17 17 16 16 13 13 12 12 11 11 9 11 14 13 13 10 11 10 10 10 14 16 17 16 13 11 11 12 9 10 10 10 7 4 8
11 15 18 22 16 13 14 28 17 13 18 13 15 16 16 16 15 14 13 12 13 12 12 11 10 10 14 15 10 6 5 4 6 9 12 16 17 17 16 15 10 11 10 9 10 11 11 8 8
18 12 9 15 15 9 10 19 17 13 6 5 9 12 12 12 10 9 9 10 11 11 9 12 12 10 11 14 12 14 12 11 9 12 11 11 16 16 15 14 14 11 9 11 9 9 10 9 9
7 8 9 14 19 20 14 13 4 10 18 20 13 9 8 7 7 7 7 6 6 6 6 6 9 11 10 14 15 13 15 12 11 10 14 14 13 16 16 14 14 14 9 9 10 12 11 7 5
7 9 19 12 8 7 4 13 4 5 9 11 11 9 10 11 6 4 6 5 7 9 9 6 5 10 10 14 17 18 19 16 12 13 13 12 12 12 16 16 13 13 11 13 10 10 13 9 3
7 13 6 4 4 6 1 10 15 16 20 19 19 19 16 10 6 7 8 8 9 12 12 10 9 7 9 12 14 18 19 18 17 16 13 14 12 12 14 16 14 13 13 12 9 10 11 9 7
16 5 5 7 6 15 16 11 3 8 10 13 13 10 5 8 8 8 9 7 8 11 13 14 13 12 8 11 12 15 18 13 13 14 13 13 13 13 14 15 15 14 13 13 11 9 6 8 6
2 6 2 9 13 10 7 10 12 16 12 3 3 4 8 10 10 10 11 9 7 8 12 15 15 14 12 11 12 11 13 16 14 14 13 11 12 12 13 16 16 15 14 11 11 9 10 10 9
13 3 5 3 6 10 10 20 14 12 10 3 6 10 13 14 15 14 12 13 11 9 10 12 14 15 15 13 11 12 14 13 17 13 13 15 11 12 14 15 14 13 12 12 10 11 12 15 10
4 5 7 4 5 8 13 9 5 12 13 11 11 15 17 18 19 16 15 14 13 12 12 12 13 15 16 15 12 11 12 15 16 16 15 15 15 11 16 15 15 15 15 14 12 11 13 15 12
15 15 13 6 8 8 11 23 19 4 9 13 17 20 22 20 21 20 19 17 16 15 13 13 13 13 14 15 14 13 11 12 14 15 17 15 14 17 15 12 13 15 16 15 16 13 9 15 12
Wind_Direction
330 329 205 223 225 265 218 148 350 22 319 337 310 261 276 349 312 351 359 195 155 161 161 165 152 152 151 151 140 139 138 139 139 140 141 143 144 145 146 146 146 145 141 136 131 128 128 129 131
327 326 134 121 229 235 236 212 167 83 312 315 308 272 294 296 22 338 358 153 165 158 161 165 156 154 152 148 138 137 136 138 140 141 142 145 146 146 147 147 145 144 143 139 137 137 137 136 142
237 355 231 213 194 237 247 162 66 325 322 343 333 8 355 352 343 340 356 165 159 164 162 163 160 153 152 146 141 139 139 141 142 144 146 146 148 149 149 149 149 149 145 144 143 143 142 141 148
328 128 103 236 222 196 55 85 328 338 26 30 340 48 13 33 339 339 339 148 155 163 168 153 158 149 147 144 143 143 144 144 145 148 148 148 149 150 152 153 154 153 150 149 147 147 145 145 151
36 78 158 220 246 303 298 321 330 10 20 356 356 351 316 10 9 13 75 147 154 158 168 163 156 146 144 147 147 148 148 148 149 150 151 150 152 154 156 157 157 156 153 152 150 151 142 146 157
97 297 192 233 215 261 280 327 313 13 353 341 3 341 92 13 15 30 82 131 159 158 163 163 151 147 146 151 150 152 152 151 152 152 153 153 154 158 161 160 159 158 159 156 154 152 147 152 155
103 155 230 166 221 247 122 352 46 4 332 351 338 323 329 5 9 28 90 120 147 159 160 167 167 155 148 151 152 156 155 155 154 153 153 153 153 157 159 159 159 159 156 157 152 152 152 157 155
91 107 161 218 205 251 71 14 347 351 323 321 335 337 327 355 2 28 92 112 156 161 173 165 171 173 169 164 160 158 161 156 155 152 151 152 152 157 157 152 156 156 162 163 155 155 159 162 164
168 181 186 193 201 53 28 346 6 308 284 309 294 301 318 344 324 323 25 134 165 170 186 180 170 175 179 175 171 165 164 163 158 155 151 147 173 177 169 175 151 167 174 173 161 163 167 171 181
50 234 181 21 357 326 326 321 323 307 306 284 305 307 324 329 330 312 301 230 196 187 195 195 185 178 183 183 176 182 176 175 181 178 172 175 176 182 189 177 179 178 186 182 174 178 181 200 188
124 180 166 147 351 326 304 298 311 279 280 292 296 310 319 317 316 319 312 282 250 212 194 202 196 191 191 189 185 184 185 182 183 187 182 182 179 180 187 186 188 193 189 194 188 187 205 196 199
254 122 186 317 324 304 297 305 282 269 282 274 297 294 295 303 304 310 309 302 280 227 215 201 197 196 201 193 191 184 191 186 189 191 191 187 185 188 190 190 191 194 194 192 196 195 198 212 209
192 19 259 298 281 273 284 274 285 282 268 270 283 285 288 303 300 311 308 297 281 255 231 216 206 198 190 200 193 192 198 193 195 192 198 194 196 192 192 200 199 198 193 195 195 198 200 205 210
180 267 291 288 302 261 279 302 290 269 298 293 289 278 296 288 293 303 305 305 303 287 254 228 211 206 199 197 194 192 191 195 195 195 198 205 201 195 195 200 204 202 202 198 202 194 197 208 209
265 280 307 168 349 287 215 267 247 273 310 304 288 294 287 273 283 286 290 293 298 294 282 246 220 209 204 202 196 193 190 192 197 199 196 198 202 205 210 204 201 203 196 200 204 204 201 210 212
284 188 335 332 316 327 296 290 277 282 309 293 287 291 287 275 276 277 280 278 282 282 289 262 233 208 207 203 198 198 193 187 192 197 198 198 197 203 212 210 208 199 196 197 201 202 210 216 217
45 324 321 327 305 307 302 297 287 273 280 268 277 280 280 277 269 261 264 278 277 274 281 266 234 219 209 207 200 198 196 198 196 196 197 199 198 203 207 207 207 197 202 205 199 193 218 208 212
313 318 310 311 323 310 304 290 285 288 277 272 272 271 270 267 267 275 269 273 273 274 264 248 229 230 215 211 205 198 196 201 198 205 200 198 204 201 202 198 205 200 202 206 203 196 194 223 178
295 293 298 302 310 296 302 292 290 294 276 267 260 255 262 266 273 277 271 263 271 272 268 240 214 213 210 202 198 198 202 197 198 199 207 196 200 202 199 200 195 200 205 207 197 191 180 157 157
267 290 297 303 319 307 301 288 300 293 272 265 264 259 256 266 275 276 274 269 264 263 276 284 239 212 205 204 210 208 211 215 207 200 203 202 199 200 198 199 198 198 198 203 195 193 181 174 182
274 285 299 302 314 292 304 289 298 310 278 275 262 253 260 258 269 283 288 273 275 262 265 268 268 226 209 211 207 187 196 203 204 195 201 205 202 196 199 197 199 192 195 200 199 201 200 192 187
289 304 297 299 319 306 7 290 329 313 307 257 264 249 261 271 275 293 311 284 269 277 271 265 267 248 219 201 198 201 201 202 206 211 207 202 205 203 198 195 199 198 196 193 198 202 204 203 188
296 327 305 294 284 295 273 257 316 285 290 295 306 303 257 283 308 342 6 326 307 303 303 283 263 254 229 210 209 200 214 215 207 212 201 198 196 197 200 199 198 193 200 207 192 191 193 196 181
330 320 299 290 283 253 300 230 280 301 306 298 302 290 300 306 320 51 36 20 355 344 336 331 297 259 233 219 218 211 212 214 212 207 201 203 197 201 203 200 202 206 198 188 204 187 186 184 181
333 335 305 269 213 272 155 286 264 286 283 288 300 307 325 327 356 2 20 11 350 339 340 335 334 313 256 232 223 224 223 216 214 206 204 195 198 203 203 199 196 200 191 187 177 189 181 163 173
304 264 275 290 291 300 305 255 249 268 292 300 313 310 27 27 21 15 9 360 351 338 335 332 325 321 311 260 234 232 229 224 221 219 208 208 204 202 198 194 196 198 197 187 157 171 129 122 119
90 227 344 279 267 278 236 256 261 263 279 292 357 4 347 339 336 338 336 334 330 329 322 319 318 313 307 293 272 244 241 225 224 220 214 206 200 191 182 193 187 182 190 170 151 126 132 126 114
239 356 256 218 290 292 277 289 284 290 297 292 316 323 323 318 318 319 319 315 312 307 305 304 304 301 302 296 278 263 242 236 227 216 207 206 196 182 179 183 174 169 162 146 134 126 126 126 120
189 230 226 301 265 279 295 287 333 296 311 317 320 321 318 310 304 303 302 300 294 292 289 288 289 297 300 296 295 274 257 240 236 221 211 203 191 175 194 165 172 170 151 140 133 116 118 113 109
253 260 251 249 245 234 273 277 281 294 327 313 309 302 299 300 302 302 299 298 287 281 280 279 277 277 285 290 292 287 276 255 239 226 216 202 187 176 181 170 163 164 143 129 124 106 127 111 101